Regional Weather Roundup
Issued by NWS

Home | Current Version | Previous Version | Graphics & Text | Print | Product List | Glossary Off
Versions: 1 2 3 4 5 6 7 8 9 10 11 12 13 14 15 16 17 18 19 20 21 22 23 24 25 26 27 28 29 30 31 32 33 34 35 36 37 38 39 40 41 42 43 44 45 46 47 48 49 50

000
ASUS43 KMPX 070501
RWRMN
WEATHER ROUNDUP FOR MINNESOTA
NATIONAL WEATHER SERVICE TWIN CITIES/CHANHASSEN MN
1100 PM CST FRI MAR 06 2015


NOTE: "FAIR" INDICATES FEW OR NO CLOUDS BELOW 12,000 FEET WITH NO
SIGNIFICANT WEATHER AND/OR OBSTRUCTIONS TO VISIBILITY. N/A MEANS
CURRENT SKY AND/OR WEATHER CONDITIONS ARE NOT AVAILABLE.

MNZ060>063-068>070-070600-
   Twin Cities Metro

CITY           SKY/WX    TMP DP  RH WIND       PRES   REMARKS
TWIN CITIES    MOCLDY    28  17  63 SW6       30.05F WCI  22
ST PAUL        MOCLDY    28  17  63 CALM      30.06F
CRYSTAL        CLOUDY    28  19  69 S7        30.02  WCI  21
BLAINE         CLOUDY    28  21  74 S5        30.02F WCI  23
LAKEVILLE      MOCLDY    25  19  80 SW2       30.05F
EDEN PRAIRIE   MOCLDY    27  19  72 S6        30.03F WCI  20
SOUTH ST PAUL  MOCLDY    28  19  67 CALM      30.05F
LAKE ELMO      FAIR      28  19  69 SW5       30.04F WCI  23
$$
MNZ001>005-007-008-013>017-022>024-027-028-070600-
   Northwest Minnesota

CITY           SKY/WX    TMP DP  RH WIND       PRES   REMARKS
BEMIDJI        FLURRIES  28  24  82 SW8       29.86F WCI  20
HALLOCK        CLOUDY    34  30  86 W3        29.85R
ROSEAU         LGT SNOW  30  27  86 SW14      29.81S WCI  20
WARROAD        LGT SNOW  30  27  86 SW8       29.81S WCI  23
THIEF RVR FALL CLOUDY    32  25  74 S9        29.84F WCI  24
CROOKSTON      PTCLDY    34  27  75 S14       29.85F WCI  24
FOSSTON        CLOUDY    28  21  74 S14       29.85F WCI  17
DETROIT LAKES  MOCLDY    32  25  74 SW18      29.88F WCI  20
MOORHEAD       MOCLDY    34  27  75 S9        29.90F WCI  26
PARK RAPIDS    CLOUDY    29  20  69 SW8       29.88F WCI  21
MAHNOMEN       CLOUDY    31  23  74 S12       29.86F WCI  21
$$
MNZ006-009>011-018-025>026-070600-
   North Central Minnesota

CITY           SKY/WX    TMP DP  RH WIND       PRES   REMARKS
BAUDETTE       CLOUDY    29  23  78 SW9       29.79F WCI  20
FLAG ISLAND    FLURRIES  28  27  93 W9        29.78S WCI  20
INTL FALLS     LGT SNOW  26  15  63 SW10      29.82F WCI  16
WASKISH        FLURRIES  28  23  80 SW6G17    29.84F WCI  22
BIG FORK       CLOUDY    27  12  54 SW7       29.86F WCI  19
LONGVILLE      CLOUDY    28  18  64 SW5       29.90F WCI  23
GRAND RAPIDS   CLOUDY    28  14  54 SW12      29.88F WCI  18
CRANE LAKE     CLOUDY    25   9  50 S3        29.86F
ORR            CLOUDY    25   7  46 S5        29.83F WCI  19
COOK           CLOUDY    25  10  54 SW5       29.86F WCI  19
WALKER         LGT SNOW  27  22  82 SW7       29.89F WCI  20
$$
MNZ012-019>021-037-070600-
   Northeast Minnesota

CITY           SKY/WX    TMP DP  RH WIND       PRES   REMARKS
DULUTH         MOCLDY    25   9  50 W13       29.90F WCI  14
ELY            MOCLDY    21   9  58 SW3       29.86F
HIBBING        CLOUDY    23   8  52 SW3       29.88F
EVELETH        PTCLDY    23  10  58 SW7       29.89F WCI  15
DULUTH HARBOR  CLOUDY    27  12  54 CALM      29.95F
TWO HARBORS    PTCLDY    27  12  54 W6        29.89F WCI  20
SILVER BAY     MOCLDY    28  10  47 CALM      29.88F
GRAND MARAIS     N/A     26   9  48 W5        29.90F WCI  20
G MARAIS ARPRT CLOUDY    21   5  49 SW5       29.83F WCI  15
$$
MNZ029>031-032-039>041-046>048-054>057-064-070600-
   West Central Minnesota

CITY           SKY/WX    TMP DP  RH WIND       PRES   REMARKS
FERGUS FALLS   CLOUDY    30  23  74 S13       29.96F WCI  20
WHEATON        CLOUDY    30  25  80 S12       29.97F WCI  21
MORRIS         MOCLDY    28  23  80 S9        29.96F WCI  20
ALEXANDRIA     CLOUDY    28  21  75 S12       29.95F WCI  18
ELBOW LAKE     CLOUDY    29  25  84 S13       29.95F WCI  19
WADENA         CLOUDY    28  21  74 SW9       29.91F WCI  20
GLENWOOD       MOCLDY    27  21  80 S7        29.98F WCI  19
APPLETON       MOCLDY    30  23  74 S7        29.99F WCI  23
BENSON         PTCLDY    27  21  80 S6        29.99F WCI  20
ORTONVILLE     MOCLDY    30  25  80 S7        29.98F WCI  23
MADISON        MOCLDY    34  27  75 S6        29.99F WCI  29
WILLMAR        FAIR      28  21  74 CALM      30.01F
$$
MNZ033>034-036-042>043-049>051-058-059-070600-
   Central Minnesota

CITY           SKY/WX    TMP DP  RH WIND       PRES   REMARKS
ST CLOUD       CLOUDY    26  19  74 S6        29.99F WCI  19
SAUK CENTRE    CLOUDY    26  22  83 S6        29.97F WCI  20
PAYNESVILLE    CLOUDY    25  20  82 SE7       30.00F WCI  17
AITKIN         CLOUDY    32  18  55 SW8       29.93S WCI  25
PINE RIVER     CLOUDY    28  19  69 S5        29.95F WCI  23
BRAINERD       CLOUDY    27  19  72 SW7       29.94F WCI  19
STAPLES        CLOUDY    27  19  74 S7        29.92F WCI  19
LONG PRAIRIE   CLOUDY    27  21  80 S7        29.95F WCI  19
LITTLE FALLS   MOCLDY    28  19  69 S5        29.96F WCI  23
LITCHFIELD     CLOUDY    27  23  86 CALM      30.01F
BUFFALO        CLOUDY    27  19  74 CALM      30.02F
MAPLE LAKE     MOCLDY    28  22  79 S3        30.01F
$$
MNZ037-044-045-052-053-070600-
   East Central Minnesota

CITY           SKY/WX    TMP DP  RH WIND       PRES   REMARKS
PRINCETON      CLOUDY    28  19  69 CALM      30.00F
MORA           MOCLDY    27  18  69 SW6       29.99F WCI  20
CAMBRIDGE      CLOUDY    28  18  64 CALM      29.98F
RUSH CITY      CLOUDY    27  17  64 SW5       30.00F WCI  22
MOOSE LAKE     CLOUDY    28  14  54 CALM      29.93F
HINCKLEY       CLOUDY    28  18  64 S5        29.97F WCI  23
CLOQUET        CLOUDY    27  10  50 SW7       29.92F WCI  19
MCGREGOR       CLOUDY    28  18  64 SW7       29.93F WCI  21
$$
MNZ071>073-080-081-089-090-097-098-070600-
   Southwest Minnesota

CITY           SKY/WX    TMP DP  RH WIND       PRES   REMARKS
MONTEVIDEO     MOCLDY    30  25  80 SW8       30.01F WCI  23
GRANITE FALLS  MOCLDY    29  23  81 SE7       30.02S WCI  21
CANBY          CLOUDY    35  25  65 NE10      30.00F WCI  27
MARSHALL       PTCLDY    34  25  69 SW10      30.02F WCI  26
REDWOOD FALLS  FAIR      30  24  78 S9        30.01F WCI  22
OLIVIA         PTCLDY    28  23  80 S3        30.01F
PIPESTONE      CLOUDY    34  27  75 SW7       30.01F WCI  28
WINDOM         MOCLDY    32  27  80 S6        30.02F WCI  26
WORTHINGTON    CLOUDY    32  27  80 S6        30.06F WCI  26
JACKSON        CLOUDY    32  28  86 S5        30.05F WCI  27
TRACY          MOCLDY    35  27  74 SW14      30.00F WCI  26
SLAYTON        MOCLDY    33  27  77 CALM      30.02F
$$
MNZ065>067-074>077-082>085-091>093-070600-
   South Central Minnesota

CITY           SKY/WX    TMP DP  RH WIND       PRES   REMARKS
MANKATO        MOCLDY    28  21  74 S8        30.06F WCI  20
NEW ULM        MOCLDY    27  21  80 S7        30.03F WCI  19
ST JAMES       MOCLDY    32  27  80 S7        30.06F WCI  26
FAIRMONT       CLOUDY    30  25  80 CALM      30.06F
GLENCOE        MOCLDY    28  25  87 SE3       30.01F
FARIBAULT      MOCLDY    27  21  80 CALM      30.05F
OWATONNA       MOCLDY    28  21  74 SW5       30.05F WCI  23
WASECA         MOCLDY    27  25  93 S3        30.08F
ALBERT LEA     PTCLDY    30  21  69 CALM      30.06F
$$
MNZ078>079-086>088-094>096-070600-
   Southeast Minnesota

CITY           SKY/WX    TMP DP  RH WIND       PRES   REMARKS
ROCHESTER      CLEAR     22  17  81 W8        30.06F WCI  12
RED WING       PTCLDY    23  16  74 CALM      30.05F
STANTON        MOCLDY    28  22  77 S3        30.04F
DODGE CENTER   PTCLDY    27  21  80 W6        30.05F WCI  20
WINONA         CLEAR     28  21  74 CALM      30.08F
AUSTIN         PTCLDY    28  21  74 W5        30.07S WCI  23
PRESTON        FAIR      25  19  79 W7        30.06F WCI  17
$$
ABBREVIATIONS USED IN REMARKS
   TC - TEMPERATURES IN CELSIUS
  WCI - WIND CHILL INDEX
   HX - HEAT INDEX
  VSB - VISIBILITY
$$



USA.gov is the U.S. government's official web portal to all federal, state and local government web resources and services.